Flag for U.S.A. Weather past 2 weeks in Harrisburg, Pennsylvania, U.S.A.

Now
25 °F

Overcast.


Feels Like: 25 °F
Forecast: 16 / 34 °F
Wind: No wind

Location: Capital City Airport

Current Time: Feb 1, 2015 at 8:26:58 AM

Latest Report: Feb 1, 2015 at 7:56 AM


Visibility: 10 mi

Pressure: 30.26 "Hg

Humidity: 72%

Dew point: 17 °F

Location of HarrisburgLocation

Historic Weather in Harrisburg — Graph

°F

Harrisburg temperature yesterday

Maximum temperature yesterday: 27 °F (at 3:56 PM)
Minimum temperature yesterday: 13 °F (at 3:56 AM)
Average temperature yesterday: 18 °F

Past Weeks' High & Low Weather Summary

 TemperatureHumidityPressure
High43 °F (Jan 19, 11:56 AM)100% (Jan 29, 2:56 AM)30.42 "Hg (Jan 29, 2:56 AM)
Low1 °F (Jan 28, 11:56 PM)27% (Jan 28, 1:56 PM)29.42 "Hg (Jan 24, 2:56 PM)
Average29 °F69%30.03 "Hg
* Reported Jan 17 6:56 AM — Feb 1 6:56 AM, Harrisburg, Weather by CustomWeather, © 2014

Note: Actual official high and low records may vary slightly from our data, if they occured in-between our weather recording intervals... More about our weather records

Advertising

Harrisburg weather history for previous 24 hours

 ConditionsComfort  
Time TempWeatherWind HumidityBarometerVisibility
6:56 AM
Feb 1
24 °FOvercast.No wind71%30.25 "Hg10 mi
5:56 AM22 °FOvercast.No wind75%30.25 "Hg10 mi
4:56 AM21 °FOvercast.No wind71%30.25 "Hg10 mi
3:56 AM19 °FOvercast.No wind71%30.25 "Hg10 mi
2:56 AM16 °FOvercast.No wind74%30.25 "Hg10 mi
1:56 AM13 °FPassing clouds.3 mph77%30.27 "Hg10 mi
12:56 AM15 °FClear.No wind74%30.26 "Hg10 mi
11:56 PM
Jan 31
13 °FClear.3 mph74%30.27 "Hg10 mi
10:56 PM16 °FClear.No wind67%30.26 "Hg10 mi
9:56 PM17 °FClear.No wind68%30.26 "Hg10 mi
8:56 PM17 °FClear.7 mph64%30.27 "Hg10 mi
7:56 PM19 °FClear.5 mph59%30.27 "Hg10 mi
6:56 PM23 °FClear.6 mph48%30.28 "Hg10 mi
5:56 PM25 °FClear.7 mph44%30.26 "Hg10 mi
4:56 PM26 °FSunny.7 mph42%30.25 "Hg10 mi
3:56 PM27 °FSunny.12 mph41%30.25 "Hg10 mi
2:56 PM26 °FSunny.13 mph42%30.26 "Hg10 mi
1:56 PM25 °FSunny.13 mph44%30.26 "Hg10 mi
12:56 PM24 °FSunny.13 mph44%30.28 "Hg10 mi
11:56 AM22 °FSunny.9 mph48%30.31 "Hg10 mi
10:56 AM20 °FPassing clouds.15 mph50%30.33 "Hg10 mi
9:56 AM18 °FPartly sunny.12 mph52%30.35 "Hg10 mi
8:56 AM16 °FPassing clouds.13 mph51%30.34 "Hg10 mi
Weather by CustomWeather, © 2014

See weather overviewHow to use our weather pages